Other Public Products
Issued by NWS Grand Forks, ND

Home | Current Version | Previous Version | Graphics & Text | Print | Product List | Glossary On
Versions: 1 2 3 4 5 6 7 8 9 10 11 12 13 14 15 16 17 18 19 20 21 22 23 24 25 26 27 28 29 30 31 32 33 34 35 36 37 38 39 40 41 42 43 44 45 46 47 48 49 50
000
FPUS83 KFGF 110610
OPUFGF
PRAIRIE TO PINES WEATHER ROUNDUP
NATIONAL WEATHER SERVICE EASTERN NORTH DAKOTA/GRAND FORKS ND
100 AM CDT FRI JUL 11 2014

 **SATELLITE DATA USED TO AUGMENT SKY COVER AT AUTOMATED STATIONS**
 *****  WEATHER ACROSS EASTERN NORTH DAKOTA  *****

CITY           SKY/WX    TMP DP  RH WIND       PRES   REMARKS
GRAND FORKS    PTCLDY    67  64  90 SE3       29.81S
6HR MIN TEMP:  67; 6HR MAX TEMP:  79;

GRAND FORKS AF CLEAR     65  65 100 S2        29.82S
GRAND CITY NWS   N/A     66 N/A N/A S6          N/A
BUXTON         NOT AVBL
DEVILS LAKE    PTCLDY    68  63  83 SW6       29.82R
6HR MIN TEMP:  66; 6HR MAX TEMP:  79;

FARGO          MOCLDY    72  67  84 SE9       29.81F
6HR MIN TEMP:  69; 6HR MAX TEMP:  72; 6HR PCP:  0.61;

WAHPETON ARPT  CLOUDY    70  64  83 SE3       29.83R
$$

 *****  WEATHER ACROSS CENTRAL AND WESTERN NORTH DAKOTA  *****

CITY           SKY/WX    TMP DP  RH WIND       PRES   REMARKS
JAMESTOWN      CLEAR     66  65  96 SE3       29.82S
6HR MIN TEMP:  65; 6HR MAX TEMP:  74;

BISMARCK       CLEAR     66  65  96 CALM      29.83S
6HR MIN TEMP:  65; 6HR MAX TEMP:  78;

MINOT          MOCLDY    69  66  90 E6        29.83R
6HR MIN TEMP:  69; 6HR MAX TEMP:  80;

MINOT AFB      PTCLDY    69  69  99 E6        29.82S
6HR MIN TEMP:  69; 6HR MAX TEMP:  80;

GARRISON         N/A     68  66  93 S3        29.81R
6HR MIN TEMP:  67; 6HR MAX TEMP:  80;

WILLISTON      CLEAR     67  60  78 NE10      29.88R
6HR MIN TEMP:  67; 6HR MAX TEMP:  94;

DICKINSON      CLEAR     70  66  87 NW9       29.87R
6HR MIN TEMP:  68; 6HR MAX TEMP:  81;

HETTINGER      PTCLDY    69  64  84 CALM      29.88R
6HR MIN TEMP:  69; 6HR MAX TEMP:  83;

$$

 *****  OTHER OBSERVATIONS NORTHEAST NORTH DAKOTA  *****

CITY           SKY/WX    TMP DP  RH WIND       PRES   REMARKS
WALHALLA         N/A     68  68 100 S7          N/A
LANGDON        FAIR      63  63 100 S7        29.83F
CAVALIER       FAIR      66  64  94 S6        29.81S
GRAFTON        MOCLDY    66  66 100 S5        29.81F
CANDO          FAIR      63  63 100 S6        29.83F
FORT TOTTEN      N/A     65  63  92 S3        29.95S
ROLLA          FAIR      64  64 100 SW8       29.82S
RUGBY          FAIR      68  66  94 SW6       29.82R
 ***** THE ABOVE OBSERVATIONS ARE NON NWS ARE NOT QUALITY
        CONTROLLED AND MAY MIS-REPORT RAIN FOR SNOW...
$$

 *****  OTHER OBSERVATIONS SOUTHEAST NORTH DAKOTA *****

CITY           SKY/WX    TMP DP  RH WIND       PRES   REMARKS
COOPERSTOWN    NOT AVBL
VALLEY CITY    FAIR      66  66 100 S3        29.83S
OAKES          NOT AVBL
GWINNER        PTCLDY    70  70 100 S3        29.83S
SHEYENNE NWR     N/A     69  67  93 SE5       29.95S
BUFFALO        NOT AVBL
WYNDMERE       NOT AVBL
 ***** THE ABOVE OBSERVATIONS ARE NON NWS ARE NOT QUALITY
       CONTROLLED AND MAY MIS-REPORT RAIN FOR SNOW...
$$

  *****  WEATHER ACROSS NORTHERN MINNESOTA  *****

CITY           SKY/WX    TMP DP  RH WIND       PRES   REMARKS
FLAG ISLAND    CLEAR     70  63  78 S13       29.84R
WARROAD        CLEAR     68  64  88 S6        29.86S
ROSEAU         PTCLDY    66  61  82 S6        29.85S
HALLOCK        MOCLDY    70  64  83 S12       29.81S
THF RVR FALLS    N/A    N/A N/A N/A MISG        N/A
HALSTAD          N/A     69  66  90 SE6         N/A
FOSSTON        CLEAR     66  63  88 SE8       29.87S
BAUDETTE       PTCLDY    67  61  81 S8        29.88F
6HR MIN TEMP:  67; 6HR MAX TEMP:  75;

WASKISH        NOT AVBL
CROOKSTON      PTCLDY    66  64  94 SE6       29.83F
$$
  *****  WEATHER ACROSS CENTRAL AND WEST MINNESOTA  *****

CITY           SKY/WX    TMP DP  RH WIND       PRES   REMARKS
BEMIDJI        RAIN      66  65  96 S8        29.90F
PARK RAPIDS    CLOUDY    68  67  96 SE8       29.91F
6HR MIN TEMP:  66; 6HR MAX TEMP:  78; 6HR PCP:  0.38;

WADENA         TSTM      68  66  94 S8        29.90F
DETROIT LAKES  PTCLDY    70  66  88 S9        29.88F
MOORHEAD       PTCLDY    72  72 100 SE9       29.83F
FERGUS FALLS   CLOUDY    70  66  88 S9        29.84F
ELBOW LAKE     NOT AVBL
MORRIS MN      PTCLDY    72  66  83 S14G21    29.85F
STAPLES        CLOUDY    66  64  94 SE3       29.91F
WHEATON        PTCLDY    72  64  78 S14G22    29.83F
$$
  *****  WEATHER ELSEWHERE ACROSS MINNESOTA  *****

CITY           SKY/WX    TMP DP  RH WIND       PRES   REMARKS
DULUTH         CLOUDY    62  53  72 SE7       30.00R
6HR MIN TEMP:  61; 6HR MAX TEMP:  69;

INTRNTL FALLS  CLOUDY    65  61  87 CALM      29.91R
6HR MIN TEMP:  64; 6HR MAX TEMP:  74; 6HR PCP:  0.08;

ELY            MOCLDY    63  54  72 S3        29.98F
CLOQUET        RAIN      59  54  82 CALM      30.00R
BRAINERD       LGT RAIN  72  64  76 SE5       29.95F
6HR MIN TEMP:  72; 6HR MAX TEMP:  83; 6HR PCP:  0.01;

HIBBING        LGT RAIN  69  59  70 S5        29.97R
6HR MIN TEMP:  67; 6HR MAX TEMP:  77; 6HR PCP: TRACE;

ALEXANDRIA     TSTM      70  66  87 SE17G25   29.89F FOG
6HR MIN TEMP:  70; 6HR MAX TEMP:  79; 6HR PCP:  0.44;

SAINT CLOUD    CLOUDY    76  59  55 S15G24    29.95S
6HR MIN TEMP:  75; 6HR MAX TEMP:  81;

MINNEAPOLIS    CLOUDY    75  59  57 S13G22    30.00R
6HR MIN TEMP:  75; 6HR MAX TEMP:  82;

$$

  *****  WEATHER ACROSS SOUTH DAKOTA  *****

CITY           SKY/WX    TMP DP  RH WIND       PRES   REMARKS
SIOUX FALLS    MOCLDY    75  66  73 S18       29.93F
6HR MIN TEMP:  75; 6HR MAX TEMP:  81;

BROOKINGS      NOT AVBL
WATERTOWN      MOCLDY    73  66  78 S14       29.88F
6HR MIN TEMP:  72; 6HR MAX TEMP:  76;

HURON          PTCLDY    77  67  71 S12G22    29.86R
6HR MIN TEMP:  76; 6HR MAX TEMP:  81; 6HR PCP: TRACE;

SISSETON         N/A     72  68  87 S14       29.81F
ABERDEEN       PTCLDY    70  68  93 S7        29.82F
6HR MIN TEMP:  70; 6HR MAX TEMP:  81; 6HR PCP: TRACE;

MITCHELL       HVY RAIN  74  70  87 S25G37    29.94R FOG
PIERRE         PTCLDY    72  68  87 NE3       29.79F
6HR MIN TEMP:  72; 6HR MAX TEMP:  86;

MOBRIDGE       CLEAR     65  64  97 CALM      29.81S
RAPID CITY     MOCLDY    69  60  73 NW7       29.92R
6HR MIN TEMP:  68; 6HR MAX TEMP:  80;

$$

  *****  SOME WEATHER IN NEARBY STATES *****

CITY           SKY/WX    TMP DP  RH WIND       PRES   REMARKS
GLASGOW MT     CLEAR     68  57  68 NE14      29.90R
6HR MIN TEMP:  67; 6HR MAX TEMP:  88;

GREAT FALLS MT CLEAR     71  49  45 NE14      29.92R
6HR MIN TEMP:  70; 6HR MAX TEMP:  90;

CHEYENNE WY    CLOUDY    66  56  70 VRB3      30.14F
6HR MIN TEMP:  65; 6HR MAX TEMP:  85; 6HR PCP: TRACE;

SCOTTSBLUFF NE MOCLDY    68  62  81 NE5       30.01R
6HR MIN TEMP:  68; 6HR MAX TEMP:  76; 6HR PCP:  0.02;

OMAHA NE       CLEAR     73  64  73 SE15      30.01S
6HR MIN TEMP:  73; 6HR MAX TEMP:  83;

DES MOINES IA  PTCLDY    70  59  68 SE10      30.08R
6HR MIN TEMP:  70; 6HR MAX TEMP:  81;

DAVENPORT IA   CLEAR     66  58  75 S9        30.16R
6HR MIN TEMP:  64; 6HR MAX TEMP:  77;

CHICAGO IL     MOCLDY    64  51  62 CALM      30.18R
6HR MIN TEMP:  64; 6HR MAX TEMP:  74;

EAU CLAIRE WI  PTCLDY    70  63  78 S9        30.05S
6HR MIN TEMP:  70; 6HR MAX TEMP:  78;

LA CROSSE WI   CLEAR     70  62  76 S6        30.08S
6HR MIN TEMP:  70; 6HR MAX TEMP:  81;

$$

  *****  SOME NATIONAL WEATHER *****

CITY           SKY/WX    TMP DP  RH WIND       PRES   REMARKS
LA GUARDIA NY  CLOUDY    74  60  61 SE3       30.13S
6HR MIN TEMP:  74; 6HR MAX TEMP:  78;



USA.gov is the U.S. government's official web portal to all federal, state and local government web resources and services.